Location: Memphis International Airport Police
(35.0443°N, 89.9815°W)
Time: 01:24:55
(UTC+00:00)

Milstar 3 Cent rocket - Pass Details

Date: 26 September 2023
Orbit: 707 x 5145 km, 28.3° (Epoch: 29 November)

Event Time Altitude Azimuth Distance (km) Brightness Sun altitude
Rises 01:50:19 0° 263° (W) 6,699 7.9 -24.6°
Reaches altitude 10° 01:55:49 10° 260° (W) 4,941 6.9 -25.7°
Maximum altitude 02:07:19 55° 188° (S) 1,540 3.3 -27.9°
Enters shadow 02:08:25 50° 158° (SSE) 1,508 3.1 -28.1°
